Weather in Ilet'

Russia / Mari El Republic     56°06′49″N   48°21′09″E
temp.,
°C
wind,
m/s
gust,
m/s
humid.,
%
clouds,
%
prec.,
mm/h
press.,
hPa
HPBL,
m
10 august, wed
wed1000:00+17n4109092 1.3 1019193
03:00+16wnw239452 1.8 101948
06:00+18wnw2289100 0.0 1019103
09:00+22nw347273 0.1 1019544
12:00+25nnw3357100 0.0 1019976
15:00+26nw325112 0.0 10191526
18:00+20wnw238485 0.9 101964
21:00+17nw349694 1.6 101997
11 august, thu
thu1100:00+17nw2694100 0.1 1020183
03:00+14nnw369592 0.1 1021126
06:00+15nne25925 0.0 1022179
09:00+19nne456773 0.0 1023645
12:00+22nne334719 0.0 10231548
15:00+23n22425 0.0 10231906
18:00+21nne24590 0.0 1022102
21:00+16ene11710 0.0 102311
12 august, fri
fri1200:00+14wnw11755 0.0 102411
03:00+13wsw11789 0.0 102410
06:00+16sw127384 0.0 102486
09:00+21w345597 0.0 1024666
12:00+24w4547100 0.0 10231648
15:00+25w45445 0.0 10221671
18:00+22w366138 0.0 1021159
21:00+17w36735 0.0 102276
13 august, sat
sat1300:00+15w23755 0.0 102232
03:00+14w22785 0.0 102217
06:00+16w24745 0.0 1022135
09:00+22nw34579 0.0 1022507
12:00+25nw34486 0.0 10221625
15:00+26nnw3449100 0.0 10211403
18:00+22n3668100 0.0 1021158
21:00+20n227192 0.0 102217
14 august, sun
sun1400:00+16nne228790 0.0 102217
03:00+14ne11895 0.0 102312
06:00+16ne23795 0.0 102494
09:00+21ene235685 0.0 1023611
12:00+24ene2244100 0.0 10231516
15:00+25e124192 0.0 10221573
18:00+22ese225793 0.0 102233
21:00+17ese226378 0.0 102211